METEOR 2-11 DEB, 60005

Orbit data source: Space-Track

METEOR 2-11 DEB, 60005 is space debris in LEO originally from a launch on Thu, 05 Jul 1984 UTC launched from the Plesetsk Missile And Space Complex (PKMTR). Debris objects in space refer to the collection of defunct objects orbiting the Earth. Examples of debris include non-operational satellites, rocket bodies, and fragments generated from explosions, collisions, or faulty payload assembly.

Loading next visibility...
Identifier
60005, 1984-072AA
Orbit
LEO
Country
Flag of CISCIS
Related business
Manufacturer
Unknown
Mission
Spacecraft
Bus & Motor
Unknown
Mass
Unknown
Launch date (UTC)
1984-07-05 (42 years ago)
Launch vehicle
Unknown
Launch site
Plesetsk Missile And Space Complex (PKMTR)
Object type
Payload
Rocket body
Debris
Shape & HBR
Unknown shape, 0.1 m
Radar Cross Section
Small (<0.1 m²)

Expand to show TLE details & history
Last TLE update: 4 days ago

TLE from 4 days ago
0 METEOR 2-11 DEB
1 60005U 84072AA  26126.47638043  .00001615  00000-0  10679-2 0  9992
2 60005  82.5221  35.6508 0026832  72.5902 287.8199 14.00873986431082
Epoch: 2026-05-06T11:25Z
TLE epoch observation values (Epoch: 2026-05-06T11:25:59.269Z)
Latitude
0.00009°
Longitude
-0.18247°
Altitude
887.772 km
Speed
7.411 km/s
True Right ascension
02h 22m 36s
True Declination
0° 00' 00"
Sunlit
Object was in daylight at epoch
Visualization orbit readout
Latitude
Unknown
Longitude
Unknown
Altitude
Unknown
Speed
Unknown
Apparent Right ascension
Unknown
Apparent Declination
Unknown
Sunlit
N/A
Visualization observer readout
Local Sidereal Time
01:38:45
Azimuth
Unknown
Elevation
Unknown
Doppler factor
Unknown
Orbital elements
Apogee altitude
907.396 km
Perigee altitude
868.404 km
Semi-major axis
7,266.037 km
Eccentricity
0.00268
Inclination
82.5221°
RAAN
35.6508°
Arg. of periapsis
72.5902°
True anomaly
287.52688°
Mean anomaly
287.8199°
Eccentric anomaly
287.67342°
Mean motion
3.50426 °/min
Orbital period
102.73 mins
BSTAR
0.0010679
Loading maneuver chart data...
Computing Atmospheric mass density...
Loading historical data...
Loading historical data...
Loading historical data...
Loading historical data...
Loading historical data...
Loading historical data...
Loading historical data...

Documentation

Showing up to 5 results
|